COSMOS 970 DEB

Satellite information

Favourite Embed

Satellite Type and Status

DEBRISIN ORBIT

Key statistics

Satellite COSMOS 970 DEB at a glance.

Uptime

17477

Days in orbit

Revolutions

≈ 13.6

Per day

Orbit

LEO

Low Earth Orbit

Inclination

65.8

Latest

Satellite identification and parameters

Extended collection of information and parameters for COSMOS 970 DEB.

Object identification

Identified? True

Debris? True

Object name: COSMOS 970 DEB

International designator: 1977-121CU

Object number (NORAD): 64983

Object ID (CCSDS): 64983

Country: COMMONWEALTH OF INDEPENDENT STATES (CIS)

Current information (Y/N): Y

RCS size: SMALL

Orbital parameters

Period: 105.573 minutes

Inclination: 65.7853 deg

SMA: 7399.37 km

Apoapsis: 1092.919 km

Periapsis: 949.551 km

RAAN: 298.9002 deg

Eccentricy: 0.0096879

Argument of periapsis: 183.3572 deg

Mean anomaly: 196.9077 deg

Mean motion: 13.6398833 rev/day

Mean motion (dot): 0.00000274 rev/day2

B* drag term: 0.00042865 1/REarth

Two-line elements (TLE)

Creation date: Oct. 25, 2025, 2:46 p.m.

Reference frame: TEME

Reference center: EARTH

Epoch: Oct. 25, 2025, 7:15 a.m. UTC

TLE line 0: 0 COSMOS 970 DEB

TLE line 1: 1 64983U 77121CU 25298.30262065 .00000274 00000-0 42865-3 0 9999

TLE line 2: 2 64983 65.7853 298.9002 0096879 183.3572 196.9077 13.63988330121641

Live tracking on map

Real-time ground track for satellite COSMOS 970 DEB.

In-orbit conjunctions

A list of the most updated potential collisions computed for object COSMOS 970 DEB.

Target Orbit TCA Probability of collision Miss distance Type
COSMOS 1308 LEO 2025-08-01 10:38:22 0.0004750519 57.0 (m) PAYLOAD

Associated space launch

Second generation ASAT satellite

COSMOS 970 DEB was lifted into orbit during the mission ‘Tsiklon-2 | IS-A 8’, on board a Tsiklon-2 space rocket.

The launch took place on Dec. 21, 1977, 10:35 a.m. from 90.

For more information about the launch, click the button.

Launch to space Tsiklon-2 | IS-A 8
Tsiklon-2 | IS-A 8

Agency: N/A

Status: Launch Successful

Launch date: Dec. 21, 1977, 10:35 a.m. UTC

Rocket: Tsiklon-2

Launch pad: 90

Location: Baikonur Cosmodrome, Republic of Kazakhstan

...

Latest news about this satellite

There are no fresh news available about this satellite. Check back as we update our databases every day.


Newsletter sign-up

Weekly statistics, charts and insights to help you stay on top of the space industry.